Regional Weather Roundup
Issued by NWS

Home | Current Version | Previous Version | Graphics & Text | Print | Product List | Glossary On
Versions: 1 2 3 4 5 6 7 8 9 10 11 12 13 14 15 16 17 18 19 20 21 22 23 24 25 26 27 28 29 30 31 32 33 34 35 36 37 38 39 40 41 42 43 44 45 46 47 48 49 50
000
ASUS43 KLSX 200807
RWRMO

WEATHER SUMMARY FOR MISSOURI
NATIONAL WEATHER SERVICE SPRINGFIELD MO
200 AM CST SAT DEC 20 2014

NOTE: "FAIR" INDICATES FEW OR NO CLOUDS BELOW 12,000 FEET WITH NO
       SIGNIFICANT WEATHER AND/OR OBSTRUCTIONS TO VISIBILITY.
       CURRENT SKY AND/OR WEATHER CONDITIONS ARE NOT AVAILABLE FOR
       CHILLICOTHE AND FARMINGTON.

MOZ001>031-035>038-043-044-053-054-200900-
...NORTHERN AND WESTERN MISSOURI...

CITY           SKY/WX    TMP DP  RH WIND       PRES   REMARKS
KANSAS CTY INT CLOUDY    32  31  96 S7        30.18S FOG     WCI  26
KANSAS C DTWN  CLOUDY    34  31  88 SW5       30.19F WCI  30
LEE`S SUMMIT   CLOUDY    34  32  92 SW6       30.19F WCI  29
ST JOSEPH      CLOUDY    32  29  88 S7        30.20S WCI  26
CHILLICOTHE      N/A     34  32  92 CALM      30.21F
KIRKSVILLE     CLOUDY    32  32 100 SE7       30.21F FOG     WCI  26

$$
MOZ066>068-077>081-088>096-101>105-200900-
...SOUTHWEST MISSOURI...

CITY           SKY/WX    TMP DP  RH WIND       PRES   REMARKS
SPRINGFIELD    CLOUDY    37  35  92 S7        30.19R
JOPLIN         CLOUDY    38  37  97 CALM      30.21S FOG

$$
MOZ032>034-039>042-045>050-055>058-069>072-200900-
...CENTRAL MISSOURI...

CITY           SKY/WX    TMP DP  RH WIND       PRES   REMARKS
COLUMBIA       CLOUDY    35  33  92 SE5       30.21F FOG
JEFFERSON CITY CLOUDY    36  33  89 E3        30.23F FOG
ROLLA          CLOUDY    34  32  92 SE5       30.20R FOG     WCI  30
SEDALIA        FOG       37  36  96 SE5       30.20F VSB 3/4
WHITEMAN AFB   FOG       37  36  97 S3        30.20S VSB 1
WARRENSBURG    CLOUDY    36  34  93 CALM      30.21R FOG
OSAGE BEACH    CLOUDY    37  34  87 CALM      30.20F

$$
MOZ051-052-059>065-200900-
...EAST CENTRAL MISSOURI...

CITY           SKY/WX    TMP DP  RH WIND       PRES   REMARKS
ST LOUIS INTL  CLOUDY    36  26  67 SE6       30.26F
SPIRIT OF STL  CLOUDY    35  29  78 CALM      30.25F
ST CHARLES     CLOUDY    34  30  85 E6        30.27S WCI  29

$$
MOZ072>076-082>087-097>100-106>115-200900-
...SOUTH CENTRAL AND SOUTHEAST MISSOURI...

CITY           SKY/WX    TMP DP  RH WIND       PRES   REMARKS
CAPE GIRARDEAU CLOUDY    36  30  79 E3        30.26F
FARMINGTON     CLOUDY    34  32  93 CALM      30.24S
POPLAR BLUFF   CLOUDY    37  32  82 N3        30.25R
WEST PLAINS    LGT SNOW  33  31  92 E3        30.21S FOG

$$


USA.gov is the U.S. government's official web portal to all federal, state and local government web resources and services.